contact:dominique.lefevre@mio.osupytheas.fr, maurice.libes@osupytheas.fr
Project:EMSO Ligure-ouest http://www.emso-fr.org/EMSO-France
Sensor Aquadopp, line 13 Serial AQD14315 
DOI : "https://doi.org/10.17882/74513; https://doi.org/10.17882/83244" 
Title:EMSO Ligure Ouest : Data ligne ALBATROSS capteur AQUADOPP - deploiement 2021
Id,Date,Profondeur,Latitude,Longitude,X_East,Y_North,Z_Up,Amplitude_X,Amplitude_Y,Amplitude_Z,Batterie,SoundSpeed,Heading,Pitch,Roll,Pressure,Temperature,Speed,Direction
, , m, degrees North, degrees East, m.s-1, m.s-1,m.s-1, 1, 1, 1, Volt, m.s-1, degree, degree, degree, dbar, degree_C, m.s-1, degree
09,2022-07-18T23:30:00,2000.0,42.79,6.0312,0.028,-0.007,-0.021,66.0,65.0,63.0,13.2,1504.7,76.0,-0.7,1.0,1992.734,13.28,0.028,104.0
09,2022-07-19T00:00:00,2000.0,42.79,6.0312,0.047,-0.013,-0.045,65.0,65.0,66.0,13.2,1504.7,81.2,-0.8,0.9,1992.754,13.28,0.048,105.5
09,2022-07-19T00:30:00,2000.0,42.79,6.0312,0.044,-0.007,-0.013,68.0,62.0,67.0,13.2,1504.7,83.3,-0.9,0.9,1992.714,13.28,0.044,99.0
09,2022-07-19T01:00:00,2000.0,42.79,6.0312,0.055,-0.002,-0.018,67.0,64.0,66.0,13.2,1504.7,80.9,-0.7,1.0,1992.73,13.28,0.055,92.1
09,2022-07-19T02:00:00,2000.0,42.79,6.0312,0.048,-0.012,-0.022,67.0,63.0,67.0,13.2,1504.7,88.9,-0.7,1.0,1992.611,13.28,0.049,104.0
09,2022-07-19T02:30:00,2000.0,42.79,6.0312,0.036,-0.038,-0.033,67.0,62.0,64.0,13.2,1504.7,95.1,-1.0,0.9,1992.62,13.28,0.052,136.5
09,2022-07-19T03:00:00,2000.0,42.79,6.0312,0.027,-0.041,-0.004,66.0,62.0,67.0,13.2,1504.7,101.8,-0.6,1.0,1992.644,13.28,0.049,146.6
09,2022-07-19T03:30:00,2000.0,42.79,6.0312,0.033,-0.014,0.003,65.0,65.0,65.0,13.2,1504.7,93.5,-0.6,1.0,1992.618,13.28,0.035,113.0
09,2022-07-19T04:00:00,2000.0,42.79,6.0312,0.037,-0.009,-0.002,66.0,63.0,67.0,13.2,1504.7,94.4,-0.7,0.9,1992.575,13.28,0.038,103.7
09,2022-07-19T04:30:00,2000.0,42.79,6.0312,0.038,-0.011,-0.024,68.0,62.0,68.0,13.2,1504.7,96.6,-1.0,1.0,1992.64,13.28,0.039,106.1
09,2022-07-19T05:00:00,2000.0,42.79,6.0312,0.029,-0.037,0.023,66.0,63.0,68.0,13.2,1504.7,95.7,-0.9,1.0,1992.571,13.28,0.047,141.9
09,2022-07-19T05:30:00,2000.0,42.79,6.0312,0.016,-0.027,-0.001,67.0,64.0,66.0,13.2,1504.7,93.8,-1.0,1.0,1992.542,13.28,0.031,149.3
09,2022-07-19T06:00:00,2000.0,42.79,6.0312,0.006,-0.025,-0.003,67.0,62.0,66.0,13.2,1504.7,90.2,-0.7,1.0,1992.549,13.28,0.025,166.5
09,2022-07-19T06:30:00,2000.0,42.79,6.0312,0.017,-0.034,0.002,67.0,62.0,67.0,13.2,1504.7,87.8,-1.0,0.9,1992.526,13.28,0.038,153.4
09,2022-07-19T07:00:00,2000.0,42.79,6.0312,0.019,-0.023,-0.025,68.0,64.0,67.0,13.2,1504.7,85.1,-0.8,1.0,1992.552,13.28,0.029,140.4
09,2022-07-19T07:30:00,2000.0,42.79,6.0312,0.016,-0.027,-0.01,68.0,64.0,67.0,13.2,1504.7,80.5,-0.6,0.9,1992.576,13.28,0.031,149.3
09,2022-07-19T08:00:00,2000.0,42.79,6.0312,0.017,-0.012,-0.019,69.0,63.0,67.0,13.2,1504.7,77.4,-1.0,0.9,1992.574,13.28,0.02,125.2
09,2022-07-19T08:30:00,2000.0,42.79,6.0312,0.027,-0.006,0.008,66.0,61.0,67.0,13.2,1504.7,86.5,-0.8,1.0,1992.589,13.28,0.027,102.5
09,2022-07-19T09:00:00,2000.0,42.79,6.0312,0.012,-0.006,-0.012,65.0,67.0,66.0,13.2,1504.7,84.7,-0.9,0.9,1992.596,13.28,0.013,116.6
09,2022-07-19T09:30:00,2000.0,42.79,6.0312,0.011,-0.003,0.001,69.0,63.0,66.0,13.2,1504.7,86.4,-0.9,1.0,1992.602,13.28,0.011,105.3
09,2022-07-19T10:00:00,2000.0,42.79,6.0312,0.028,-0.003,-0.03,67.0,61.0,69.0,13.2,1504.7,91.7,-0.9,0.9,1992.614,13.28,0.028,96.1
09,2022-07-19T10:30:00,2000.0,42.79,6.0312,0.031,-0.019,0.003,69.0,64.0,67.0,13.2,1504.7,79.8,-0.6,1.0,1992.632,13.28,0.036,121.5
09,2022-07-19T11:00:00,2000.0,42.79,6.0312,0.024,-0.003,0.0,67.0,66.0,66.0,13.2,1504.7,82.8,-1.0,0.9,1992.65,13.28,0.024,97.1
09,2022-07-19T11:30:00,2000.0,42.79,6.0312,0.032,0.011,-0.003,67.0,64.0,67.0,13.2,1504.7,81.0,-0.9,0.9,1992.628,13.28,0.033,71.0
09,2022-07-19T12:00:00,2000.0,42.79,6.0312,0.028,-0.009,0.005,67.0,65.0,67.0,13.2,1504.7,96.9,-0.8,1.0,1992.598,13.28,0.029,107.8
09,2022-07-19T12:30:00,2000.0,42.79,6.0312,0.036,0.003,-0.001,68.0,63.0,65.0,13.2,1504.7,90.1,-0.8,1.0,1992.656,13.28,0.036,85.2
09,2022-07-19T13:00:00,2000.0,42.79,6.0312,0.031,-0.017,-0.008,67.0,65.0,67.0,13.2,1504.7,90.5,-0.6,0.9,1992.598,13.28,0.035,118.7
09,2022-07-19T13:30:00,2000.0,42.79,6.0312,0.04,0.003,-0.029,67.0,65.0,65.0,13.2,1504.7,93.9,-0.9,0.9,1992.614,13.28,0.04,85.7
09,2022-07-19T14:00:00,2000.0,42.79,6.0312,0.046,-0.018,-0.035,67.0,63.0,68.0,13.2,1504.7,100.3,-0.8,1.0,1992.576,13.28,0.049,111.4
09,2022-07-19T15:00:00,2000.0,42.79,6.0312,0.064,-0.016,0.0,70.0,65.0,69.0,13.2,1504.7,96.0,-0.7,0.9,1992.556,13.28,0.065,104.0
09,2022-07-19T15:30:00,2000.0,42.79,6.0312,0.026,-0.008,0.008,68.0,67.0,68.0,13.2,1504.7,96.3,-1.1,0.9,1992.585,13.28,0.027,107.1
09,2022-07-19T16:00:00,2000.0,42.79,6.0312,0.03,-0.023,-0.024,71.0,66.0,70.0,13.2,1504.7,111.7,-0.9,0.9,1992.585,13.28,0.037,127.5
09,2022-07-19T16:30:00,2000.0,42.79,6.0312,0.05,-0.029,-0.023,71.0,67.0,69.0,13.2,1504.7,98.7,-1.2,0.9,1992.539,13.28,0.057,120.1
09,2022-07-19T17:00:00,2000.0,42.79,6.0312,0.06,-0.012,-0.01,71.0,66.0,71.0,13.2,1504.7,102.5,-1.1,0.9,1992.528,13.28,0.061,101.3
09,2022-07-19T17:30:00,2000.0,42.79,6.0312,0.053,-0.015,-0.011,71.0,66.0,70.0,13.2,1504.7,103.5,-1.0,0.9,1992.519,13.28,0.055,105.8
09,2022-07-19T18:00:00,2000.0,42.79,6.0312,0.049,-0.031,0.017,70.0,68.0,70.0,13.2,1504.7,107.6,-0.9,0.9,1992.491,13.28,0.057,122.3
09,2022-07-19T18:30:00,2000.0,42.79,6.0312,0.07,-0.008,0.004,69.0,68.0,71.0,13.2,1504.7,105.1,-0.9,1.0,1992.453,13.28,0.07,96.5
09,2022-07-19T19:00:00,2000.0,42.79,6.0312,0.055,-0.029,-0.011,67.0,65.0,68.0,13.2,1504.7,106.9,-0.9,0.9,1992.505,13.28,0.062,117.8
09,2022-07-19T19:30:00,2000.0,42.79,6.0312,0.066,-0.011,0.012,69.0,62.0,67.0,13.2,1504.7,101.7,-0.7,1.0,1992.554,13.28,0.066,99.5
09,2022-07-19T20:00:00,2000.0,42.79,6.0312,0.06,-0.027,0.024,68.0,66.0,71.0,13.2,1504.7,95.6,-0.7,0.9,1992.576,13.28,0.065,114.2
09,2022-07-19T20:30:00,2000.0,42.79,6.0312,0.046,-0.017,-0.017,69.0,65.0,66.0,13.2,1504.7,100.9,-1.1,0.9,1992.572,13.28,0.049,110.3
09,2022-07-19T21:00:00,2000.0,42.79,6.0312,0.038,-0.009,-0.015,70.0,64.0,67.0,13.2,1504.7,91.0,-0.8,1.0,1992.653,13.28,0.039,103.3
09,2022-07-19T21:30:00,2000.0,42.79,6.0312,0.054,-0.007,-0.015,67.0,64.0,66.0,13.2,1504.7,91.6,-1.0,0.8,1992.649,13.28,0.054,97.4
09,2022-07-19T22:00:00,2000.0,42.79,6.0312,0.044,-0.044,0.0,69.0,62.0,66.0,13.2,1504.7,98.3,-0.8,0.9,1992.637,13.28,0.062,135.0
09,2022-07-19T22:30:00,2000.0,42.79,6.0312,0.03,-0.042,-0.018,69.0,62.0,67.0,13.2,1504.7,100.7,-0.8,0.9,1992.705,13.28,0.051,144.5
09,2022-07-19T23:00:00,2000.0,42.79,6.0312,0.039,-0.037,0.0,67.0,64.0,64.0,13.2,1504.7,101.2,-0.7,0.9,1992.709,13.28,0.053,133.5
